Time,TemperatureF,DewpointF,PressureIn,WindDirection,WindDirectionDegrees,WindSpeedMPH,WindSpeedGustMPH,Humidity,HourlyPrecipIn,Conditions,Clouds,dailyrainin,SoftwareType,DateUTC
2013-04-16 00:00:00,58.6,41.1,30.00,SSE,158,4.6,4.6,52,0.00,CLR,,0.00,WeatherDisplay:10.37,2013-04-16 04:00:00,
2013-04-16 00:01:00,58.5,40.9,30.00,SSW,202,5.4,5.4,52,0.00,FEW,,0.00,WeatherDisplay:10.37,2013-04-16 04:01:00,
2013-04-16 00:06:00,58.5,41.4,30.00,SSW,202,5.8,5.8,53,0.00,FEW,,0.00,WeatherDisplay:10.37,2013-04-16 04:06:00,
2013-04-16 00:12:00,58.3,41.7,30.00,SSW,202,5.8,5.8,54,0.00,FEW,,0.00,WeatherDisplay:10.37,2013-04-16 04:12:00,
2013-04-16 00:17:00,58.3,41.2,30.00,WSW,248,3.5,3.5,53,0.00,FEW,,0.00,WeatherDisplay:10.37,2013-04-16 04:17:00,
2013-04-16 00:22:00,58.1,41.5,30.00,South,180,6.9,6.9,54,0.00,FEW,,0.00,WeatherDisplay:10.37,2013-04-16 04:22:00,
2013-04-16 00:27:00,58.1,41.5,30.00,SSW,202,5.8,5.8,54,0.00,FEW,,0.00,WeatherDisplay:10.37,2013-04-16 04:27:00,
2013-04-16 00:32:00,58.1,42.0,30.00,SSW,202,9.2,9.2,55,0.00,FEW,,0.00,WeatherDisplay:10.37,2013-04-16 04:32:00,
2013-04-16 00:38:00,58.3,42.2,30.00,WSW,248,9.2,9.2,55,0.00,FEW,,0.00,WeatherDisplay:10.37,2013-04-16 04:38:00,
2013-04-16 00:43:00,58.5,42.3,30.00,SSW,202,6.9,6.9,55,0.00,FEW,,0.00,WeatherDisplay:10.37,2013-04-16 04:43:00,
2013-04-16 00:48:00,58.5,42.3,30.00,South,180,5.8,5.8,55,0.00,FEW,,0.00,WeatherDisplay:10.37,2013-04-16 04:48:00,
2013-04-16 00:53:00,58.5,42.3,30.00,SSW,202,7.8,7.8,55,0.00,FEW,,0.00,WeatherDisplay:10.37,2013-04-16 04:53:00,
2013-04-16 00:58:00,58.5,42.3,30.00,SSW,202,6.9,6.9,55,0.00,FEW,,0.00,WeatherDisplay:10.37,2013-04-16 04:58:00,
2013-04-16 01:03:00,58.3,42.2,30.00,SSW,202,10.4,10.4,55,0.00,OVC,,0.00,WeatherDisplay:10.37,2013-04-16 05:03:00,
2013-04-16 01:09:00,58.1,42.5,30.00,SW,225,9.2,9.2,56,0.00,OVC,,0.00,WeatherDisplay:10.37,2013-04-16 05:09:00,
2013-04-16 01:14:00,58.1,42.5,30.00,WSW,248,9.2,9.2,56,0.00,OVC,,0.00,WeatherDisplay:10.37,2013-04-16 05:14:00,
2013-04-16 01:19:00,58.1,42.5,30.00,SSW,202,5.8,5.8,56,0.00,OVC,,0.00,WeatherDisplay:10.37,2013-04-16 05:19:00,
2013-04-16 01:24:00,58.1,42.5,30.00,WSW,248,5.8,5.8,56,0.00,OVC,,0.00,WeatherDisplay:10.37,2013-04-16 05:24:00,
2013-04-16 01:29:00,57.9,42.8,30.00,SSW,202,5.8,5.8,57,0.00,OVC,,0.00,WeatherDisplay:10.37,2013-04-16 05:29:00,
2013-04-16 01:34:00,57.9,42.8,30.00,SSW,205,6.0,9.0,57,0.00,OVC,,0.00,WeatherDisplay:10.37,2013-04-16 05:34:00,
2013-04-16 01:39:00,58.1,42.9,30.00,SSW,209,5.0,9.0,57,0.00,OVC,,0.00,WeatherDisplay:10.37,2013-04-16 05:39:00,
2013-04-16 01:44:00,58.1,42.9,30.00,SW,225,4.6,4.6,57,0.00,OVC,,0.00,WeatherDisplay:10.37,2013-04-16 05:44:00,
2013-04-16 01:49:00,58.3,43.1,30.00,SW,220,5.0,12.0,57,0.00,OVC,,0.00,WeatherDisplay:10.37,2013-04-16 05:49:00,
2013-04-16 01:54:00,58.4,43.2,30.00,SW,214,9.0,12.0,57,0.00,OVC,,0.00,WeatherDisplay:10.37,2013-04-16 05:54:00,
2013-04-16 01:59:00,58.5,43.3,30.00,SSW,209,6.0,9.0,57,0.00,OVC,,0.00,WeatherDisplay:10.37,2013-04-16 05:59:00,
2013-04-16 02:04:00,58.6,43.4,30.00,SSW,205,6.0,11.0,57,0.00,OVC,,0.00,WeatherDisplay:10.37,2013-04-16 06:04:00,
2013-04-16 02:09:00,58.6,43.4,30.00,SSW,205,6.0,13.0,57,0.00,OVC,,0.00,WeatherDisplay:10.37,2013-04-16 06:09:00,
2013-04-16 02:14:00,58.8,43.6,30.00,SSW,210,7.0,13.0,57,0.00,OVC,,0.00,WeatherDisplay:10.37,2013-04-16 06:14:00,
2013-04-16 02:19:00,58.8,43.6,30.00,SW,216,5.0,13.0,57,0.00,OVC,,0.00,WeatherDisplay:10.37,2013-04-16 06:19:00,
2013-04-16 02:24:00,59.0,43.8,30.00,SSW,211,3.0,16.0,57,0.00,OVC,,0.00,WeatherDisplay:10.37,2013-04-16 06:24:00,
2013-04-16 02:29:00,59.0,43.8,30.00,SW,214,6.0,10.0,57,0.00,OVC,,0.00,WeatherDisplay:10.37,2013-04-16 06:29:00,
2013-04-16 02:34:00,59.0,43.8,30.00,SW,218,7.0,10.0,57,0.00,OVC,,0.00,WeatherDisplay:10.37,2013-04-16 06:34:00,
2013-04-16 02:39:00,59.0,43.8,30.00,SSW,211,5.0,11.0,57,0.00,OVC,,0.00,WeatherDisplay:10.37,2013-04-16 06:39:00,
2013-04-16 02:44:00,59.0,43.8,30.00,SSW,204,6.0,11.0,57,0.00,OVC,,0.00,WeatherDisplay:10.37,2013-04-16 06:44:00,
2013-04-16 02:49:00,58.8,43.6,30.00,SSW,203,6.0,12.0,57,0.00,OVC,,0.00,WeatherDisplay:10.37,2013-04-16 06:49:00,
2013-04-16 02:54:00,58.8,43.6,29.97,SSW,208,6.0,10.0,57,0.00,OVC,,0.00,WeatherDisplay:10.37,2013-04-16 06:54:00,
2013-04-16 02:59:00,58.8,43.6,29.97,SSW,212,5.0,13.0,57,0.00,OVC,,0.00,WeatherDisplay:10.37,2013-04-16 06:59:00,
2013-04-16 03:04:00,58.8,44.1,29.97,SW,222,6.0,15.0,58,0.00,OVC,,0.00,WeatherDisplay:10.37,2013-04-16 07:04:00,
2013-04-16 03:09:00,58.6,43.9,30.00,SW,216,5.0,7.0,58,0.00,OVC,,0.00,WeatherDisplay:10.37,2013-04-16 07:09:00,
2013-04-16 03:14:00,58.6,43.9,30.00,SSW,205,6.0,7.0,58,0.00,OVC,,0.00,WeatherDisplay:10.37,2013-04-16 07:14:00,
2013-04-16 03:19:00,58.5,43.7,30.00,SSW,210,5.0,9.0,58,0.00,OVC,,0.00,WeatherDisplay:10.37,2013-04-16 07:19:00,
2013-04-16 03:24:00,58.5,44.2,30.00,SSW,208,6.0,12.0,59,0.00,OVC,,0.00,WeatherDisplay:10.37,2013-04-16 07:24:00,
2013-04-16 03:29:00,58.5,44.2,30.00,SSW,203,7.0,15.0,59,0.00,OVC,,0.00,WeatherDisplay:10.37,2013-04-16 07:29:00,
2013-04-16 03:34:00,58.3,44.0,30.00,SSW,204,5.0,8.0,59,0.00,OVC,,0.00,WeatherDisplay:10.37,2013-04-16 07:34:00,
2013-04-16 03:39:00,58.1,44.3,29.97,SSW,208,6.0,10.0,60,0.00,OVC,,0.00,WeatherDisplay:10.37,2013-04-16 07:39:00,
2013-04-16 03:44:00,57.9,44.5,29.97,SSW,207,5.0,14.0,61,0.00,OVC,,0.00,WeatherDisplay:10.37,2013-04-16 07:44:00,
2013-04-16 03:49:00,57.9,45.0,29.97,SSE,158,8.5,8.5,62,0.00,OVC,,0.00,WeatherDisplay:10.37,2013-04-16 07:49:00,
2013-04-16 03:54:00,57.7,44.8,29.97,SSW,202,5.0,9.0,62,0.00,OVC,,0.00,WeatherDisplay:10.37,2013-04-16 07:54:00,
2013-04-16 03:59:00,57.7,44.8,29.97,SSW,193,7.0,13.0,62,0.00,OVC,,0.00,WeatherDisplay:10.37,2013-04-16 07:59:00,
2013-04-16 04:04:00,57.7,45.2,29.97,SSW,200,3.0,10.0,63,0.00,SCT,,0.00,WeatherDisplay:10.37,2013-04-16 08:04:00,
2013-04-16 04:09:00,57.7,45.2,29.97,SSW,205,5.0,14.0,63,0.00,SCT,,0.00,WeatherDisplay:10.37,2013-04-16 08:09:00,
2013-04-16 04:14:00,57.9,45.8,29.97,South,185,6.0,9.0,64,0.00,SCT,,0.00,WeatherDisplay:10.37,2013-04-16 08:14:00,
2013-04-16 04:19:00,57.9,45.8,29.97,South,191,3.0,8.0,64,0.00,SCT,,0.00,WeatherDisplay:10.37,2013-04-16 08:19:00,
2013-04-16 04:24:00,57.9,45.8,29.97,SSW,200,7.0,14.0,64,0.00,SCT,,0.00,WeatherDisplay:10.37,2013-04-16 08:24:00,
2013-04-16 04:29:00,58.1,45.6,29.97,SW,225,6.9,6.9,63,0.00,SCT,,0.00,WeatherDisplay:10.37,2013-04-16 08:29:00,
2013-04-16 04:34:00,58.1,45.6,29.97,SSW,207,5.0,10.0,63,0.00,SCT,,0.00,WeatherDisplay:10.37,2013-04-16 08:34:00,
2013-04-16 04:39:00,58.1,45.6,29.97,SSW,202,8.1,8.1,63,0.00,SCT,,0.00,WeatherDisplay:10.37,2013-04-16 08:39:00,
2013-04-16 04:44:00,58.1,45.6,29.97,SSW,202,3.0,9.0,63,0.00,SCT,,0.00,WeatherDisplay:10.37,2013-04-16 08:44:00,
2013-04-16 04:49:00,58.3,46.2,29.97,SSW,198,6.0,12.0,64,0.00,SCT,,0.00,WeatherDisplay:10.37,2013-04-16 08:49:00,
2013-04-16 04:54:00,58.3,46.2,29.97,SSW,210,7.0,10.0,64,0.00,SCT,,0.00,WeatherDisplay:10.37,2013-04-16 08:54:00,
2013-04-16 04:59:00,58.5,46.3,29.97,South,180,6.9,6.9,64,0.00,SCT,,0.00,WeatherDisplay:10.37,2013-04-16 08:59:00,
2013-04-16 05:04:00,58.5,45.9,29.97,SW,218,6.0,8.0,63,0.00,OVC,,0.00,WeatherDisplay:10.37,2013-04-16 09:04:00,
2013-04-16 05:09:00,58.5,46.3,29.97,SW,220,8.0,13.0,64,0.00,OVC,,0.00,WeatherDisplay:10.37,2013-04-16 09:09:00,
2013-04-16 05:14:00,58.5,45.9,29.97,SW,219,6.0,11.0,63,0.00,OVC,,0.00,WeatherDisplay:10.37,2013-04-16 09:14:00,
2013-04-16 05:19:00,58.6,46.1,29.97,SSW,212,3.0,15.0,63,0.00,OVC,,0.00,WeatherDisplay:10.37,2013-04-16 09:19:00,
2013-04-16 05:24:00,58.6,46.1,29.97,SSW,206,6.0,7.0,63,0.00,OVC,,0.00,WeatherDisplay:10.37,2013-04-16 09:24:00,
2013-04-16 05:29:00,58.6,46.1,29.97,SW,220,7.0,10.0,63,0.00,OVC,,0.00,WeatherDisplay:10.37,2013-04-16 09:29:00,
2013-04-16 05:34:00,58.8,46.2,29.97,SW,218,6.0,13.0,63,0.00,OVC,,0.00,WeatherDisplay:10.37,2013-04-16 09:34:00,
2013-04-16 05:39:00,58.8,46.7,29.97,SSW,205,9.0,10.0,64,0.00,OVC,,0.00,WeatherDisplay:10.37,2013-04-16 09:39:00,
2013-04-16 05:44:00,59.0,46.4,29.97,SW,216,5.0,20.0,63,0.00,OVC,,0.00,WeatherDisplay:10.37,2013-04-16 09:44:00,
2013-04-16 05:49:00,59.0,46.4,29.97,SSW,209,7.0,15.0,63,0.00,OVC,,0.00,WeatherDisplay:10.37,2013-04-16 09:49:00,
2013-04-16 05:54:00,59.1,46.5,29.97,SW,214,7.0,12.0,63,0.00,OVC,,0.00,WeatherDisplay:10.37,2013-04-16 09:54:00,
2013-04-16 05:59:00,59.2,46.6,29.97,SW,219,8.0,12.0,63,0.00,OVC,,0.00,WeatherDisplay:10.37,2013-04-16 09:59:00,
2013-04-16 06:04:00,59.2,46.6,29.97,SSW,212,5.0,12.0,63,0.00,BKN,,0.00,WeatherDisplay:10.37,2013-04-16 10:04:00,
2013-04-16 06:09:00,59.0,46.4,29.97,SW,216,6.0,11.0,63,0.00,BKN,,0.00,WeatherDisplay:10.37,2013-04-16 10:09:00,
2013-04-16 06:14:00,59.0,46.4,29.97,SW,224,7.0,12.0,63,0.00,BKN,,0.00,WeatherDisplay:10.37,2013-04-16 10:14:00,
2013-04-16 06:19:00,59.0,46.4,29.97,SW,227,7.0,11.0,63,0.00,BKN,,0.00,WeatherDisplay:10.37,2013-04-16 10:19:00,
2013-04-16 06:24:00,58.8,46.2,29.97,SW,231,8.0,14.0,63,0.00,BKN,,0.00,WeatherDisplay:10.37,2013-04-16 10:24:00,
2013-04-16 06:29:00,58.8,46.2,29.97,SW,230,6.0,13.0,63,0.00,BKN,,0.00,WeatherDisplay:10.37,2013-04-16 10:29:00,
2013-04-16 06:34:00,58.8,46.2,29.97,SW,227,5.0,13.0,63,0.00,BKN,,0.00,WeatherDisplay:10.37,2013-04-16 10:34:00,
2013-04-16 06:39:00,58.8,46.7,29.97,SW,223,8.0,14.0,64,0.00,BKN,,0.00,WeatherDisplay:10.37,2013-04-16 10:39:00,
2013-04-16 06:44:00,58.8,46.7,29.97,SW,216,6.0,8.0,64,0.00,BKN,,0.00,WeatherDisplay:10.37,2013-04-16 10:44:00,
2013-04-16 06:49:00,58.8,46.7,29.97,SW,223,7.0,13.0,64,0.00,BKN,,0.00,WeatherDisplay:10.37,2013-04-16 10:49:00,
2013-04-16 06:54:00,59.0,46.8,29.97,SW,233,5.0,12.0,64,0.00,BKN,,0.00,WeatherDisplay:10.37,2013-04-16 10:54:00,
2013-04-16 06:59:00,59.0,46.8,29.97,SW,228,5.0,9.0,64,0.00,BKN,,0.00,WeatherDisplay:10.37,2013-04-16 10:59:00,
2013-04-16 07:04:00,59.2,47.0,29.97,SW,220,8.0,13.0,64,0.00,BKN,,0.00,WeatherDisplay:10.37,2013-04-16 11:04:00,
2013-04-16 07:09:00,59.2,47.0,29.97,SW,228,7.0,10.0,64,0.00,BKN,,0.00,WeatherDisplay:10.37,2013-04-16 11:09:00,
2013-04-16 07:14:00,59.3,47.2,29.97,SW,225,8.0,16.0,64,0.00,BKN,,0.00,WeatherDisplay:10.37,2013-04-16 11:14:00,
2013-04-16 07:19:00,59.4,47.2,29.97,SW,220,7.0,14.0,64,0.00,BKN,,0.00,WeatherDisplay:10.37,2013-04-16 11:19:00,
2013-04-16 07:24:00,59.5,47.3,29.97,SSW,213,7.0,12.0,64,0.00,BKN,,0.00,WeatherDisplay:10.37,2013-04-16 11:24:00,
2013-04-16 07:29:00,59.5,46.9,29.97,SSW,207,5.0,12.0,63,0.00,BKN,,0.00,WeatherDisplay:10.37,2013-04-16 11:29:00,
2013-04-16 07:34:00,59.7,47.1,29.97,SW,224,9.0,15.0,63,0.00,BKN,,0.00,WeatherDisplay:10.37,2013-04-16 11:34:00,
2013-04-16 07:39:00,59.9,47.3,29.97,SW,225,8.0,12.0,63,0.00,BKN,,0.00,WeatherDisplay:10.37,2013-04-16 11:39:00,
2013-04-16 07:44:00,60.1,47.4,29.97,SW,226,6.0,16.0,63,0.00,BKN,,0.00,WeatherDisplay:10.37,2013-04-16 11:44:00,
2013-04-16 07:49:00,60.4,47.3,29.97,SW,229,8.0,16.0,62,0.00,BKN,,0.00,WeatherDisplay:10.37,2013-04-16 11:49:00,
2013-04-16 07:54:00,60.6,47.5,29.94,SW,229,3.0,10.0,62,0.00,BKN,,0.00,WeatherDisplay:10.37,2013-04-16 11:54:00,
2013-04-16 07:59:00,60.6,47.5,29.94,SW,227,7.0,12.0,62,0.00,BKN,,0.00,WeatherDisplay:10.37,2013-04-16 11:59:00,
2013-04-16 08:04:00,60.6,47.5,29.94,SW,219,8.0,11.0,62,0.00,OVC,,0.00,WeatherDisplay:10.37,2013-04-16 12:04:00,
2013-04-16 08:09:00,60.8,47.7,29.94,SSW,211,6.0,10.0,62,0.00,OVC,,0.00,WeatherDisplay:10.37,2013-04-16 12:09:00,
2013-04-16 08:14:00,60.8,47.7,29.94,SW,218,9.0,13.0,62,0.00,OVC,,0.00,WeatherDisplay:10.37,2013-04-16 12:14:00,
2013-04-16 08:19:00,61.1,48.0,29.94,SW,221,7.0,13.0,62,0.00,OVC,,0.00,WeatherDisplay:10.37,2013-04-16 12:19:00,
2013-04-16 08:24:00,61.5,48.4,29.97,SW,224,8.0,14.0,62,0.00,OVC,,0.00,WeatherDisplay:10.37,2013-04-16 12:24:00,
2013-04-16 08:29:00,62.0,48.4,29.97,SW,235,7.0,10.0,61,0.00,OVC,,0.00,WeatherDisplay:10.37,2013-04-16 12:29:00,
2013-04-16 08:34:00,62.4,48.3,29.97,SW,236,9.0,14.0,60,0.00,OVC,,0.00,WeatherDisplay:10.37,2013-04-16 12:34:00,
2013-04-16 08:39:00,63.0,48.9,29.97,SW,227,6.0,13.0,60,0.00,OVC,,0.00,WeatherDisplay:10.37,2013-04-16 12:39:00,
2013-04-16 08:44:00,63.3,48.3,29.97,SW,221,9.0,14.0,58,0.00,OVC,,0.00,WeatherDisplay:10.37,2013-04-16 12:44:00,
2013-04-16 08:49:00,63.7,48.6,29.97,SW,233,5.0,12.0,58,0.00,OVC,,0.00,WeatherDisplay:10.37,2013-04-16 12:49:00,
2013-04-16 08:54:00,63.9,48.4,29.97,WSW,241,6.0,15.0,57,0.00,OVC,,0.00,WeatherDisplay:10.37,2013-04-16 12:54:00,
2013-04-16 08:59:00,64.0,48.0,29.97,WSW,239,8.0,13.0,56,0.00,OVC,,0.00,WeatherDisplay:10.37,2013-04-16 12:59:00,
2013-04-16 09:04:00,64.2,47.7,29.97,SW,231,10.0,14.0,55,0.00,OVC,,0.00,WeatherDisplay:10.37,2013-04-16 13:04:00,
2013-04-16 09:09:00,64.0,47.5,29.97,SW,236,8.0,12.0,55,0.00,OVC,,0.00,WeatherDisplay:10.37,2013-04-16 13:09:00,
2013-04-16 09:14:00,63.7,47.7,29.97,SW,233,7.0,10.0,56,0.00,OVC,,0.00,WeatherDisplay:10.37,2013-04-16 13:14:00,
2013-04-16 09:19:00,63.5,47.5,29.97,SSW,202,12.7,12.7,56,0.00,OVC,,0.00,WeatherDisplay:10.37,2013-04-16 13:19:00,
2013-04-16 09:24:00,63.5,47.5,29.97,WSW,241,9.0,15.0,56,0.00,OVC,,0.00,WeatherDisplay:10.37,2013-04-16 13:24:00,
2013-04-16 09:29:00,63.7,47.7,29.97,SW,231,12.0,17.0,56,0.00,OVC,,0.00,WeatherDisplay:10.37,2013-04-16 13:29:00,
2013-04-16 09:34:00,63.9,47.9,29.97,WSW,248,12.7,12.7,56,0.00,OVC,,0.00,WeatherDisplay:10.37,2013-04-16 13:34:00,
2013-04-16 09:40:00,63.9,47.9,29.94,West,270,13.8,13.8,56,0.00,OVC,,0.00,WeatherDisplay:10.37,2013-04-16 13:40:00,
2013-04-16 09:45:00,64.0,47.5,29.94,WSW,248,19.6,19.6,55,0.00,OVC,,0.00,WeatherDisplay:10.37,2013-04-16 13:45:00,
2013-04-16 09:50:00,64.0,47.5,29.94,WSW,248,13.8,14.3,55,0.00,OVC,,0.00,WeatherDisplay:10.37,2013-04-16 13:50:00,
2013-04-16 09:55:00,64.4,47.9,29.94,SSW,202,22.1,22.1,55,0.00,OVC,,0.00,WeatherDisplay:10.37,2013-04-16 13:55:00,
2013-04-16 10:01:00,64.8,48.2,29.94,WNW,292,12.8,12.8,55,0.00,OVC,,0.00,WeatherDisplay:10.37,2013-04-16 14:01:00,
2013-04-16 10:06:00,65.1,48.1,29.94,WSW,248,17.3,17.3,54,0.00,OVC,,0.00,WeatherDisplay:10.37,2013-04-16 14:06:00,
2013-04-16 10:12:00,65.5,47.9,29.94,SW,225,18.4,18.4,53,0.00,OVC,,0.00,WeatherDisplay:10.37,2013-04-16 14:12:00,
2013-04-16 10:17:00,65.8,48.2,29.94,West,270,15.0,15.0,53,0.00,OVC,,0.00,WeatherDisplay:10.37,2013-04-16 14:17:00,
2013-04-16 10:22:00,66.2,47.5,29.94,SSW,202,20.7,20.7,51,0.00,OVC,,0.00,WeatherDisplay:10.37,2013-04-16 14:22:00,
2013-04-16 10:27:00,66.6,48.4,29.94,SSW,202,18.5,18.5,52,0.00,OVC,,0.00,WeatherDisplay:10.37,2013-04-16 14:27:00,
2013-04-16 10:32:00,66.4,47.7,29.94,WSW,248,11.5,11.5,51,0.00,OVC,,0.00,WeatherDisplay:10.37,2013-04-16 14:32:00,
2013-04-16 10:37:00,66.0,47.4,29.97,South,180,9.8,9.8,51,0.00,OVC,,0.00,WeatherDisplay:10.37,2013-04-16 14:37:00,
2013-04-16 10:42:00,65.8,47.2,29.97,WSW,248,18.4,18.4,51,0.00,OVC,,0.00,WeatherDisplay:10.37,2013-04-16 14:42:00,
2013-04-16 10:47:00,66.0,47.4,29.97,SSW,202,23.0,23.0,51,0.00,OVC,,0.00,WeatherDisplay:10.37,2013-04-16 14:47:00,
2013-04-16 10:53:00,65.8,47.2,29.97,WSW,248,12.7,12.7,51,0.00,OVC,,0.00,WeatherDisplay:10.37,2013-04-16 14:53:00,
2013-04-16 10:58:00,65.3,47.2,29.97,WSW,248,13.8,13.8,52,0.00,OVC,,0.00,WeatherDisplay:10.37,2013-04-16 14:58:00,
2013-04-16 11:03:00,64.9,47.4,29.97,WSW,248,13.8,13.8,53,0.00,OVC,,0.00,WeatherDisplay:10.37,2013-04-16 15:03:00,
2013-04-16 11:08:00,64.8,47.7,29.94,SSW,202,12.7,12.7,54,0.00,OVC,,0.00,WeatherDisplay:10.37,2013-04-16 15:08:00,
2013-04-16 11:13:00,64.6,48.0,29.94,West,270,17.3,17.3,55,0.00,OVC,,0.00,WeatherDisplay:10.37,2013-04-16 15:13:00,
2013-04-16 11:18:00,64.6,48.5,29.94,WSW,248,19.6,19.6,56,0.00,OVC,,0.00,WeatherDisplay:10.37,2013-04-16 15:18:00,
2013-04-16 11:23:00,64.4,48.4,29.97,WSW,248,12.7,12.7,56,0.00,OVC,,0.00,WeatherDisplay:10.37,2013-04-16 15:23:00,
2013-04-16 11:29:00,64.2,48.7,29.97,West,270,11.5,11.5,57,0.00,OVC,,0.00,WeatherDisplay:10.37,2013-04-16 15:29:00,
2013-04-16 11:34:00,63.9,50.1,29.97,WSW,248,19.6,19.6,61,0.00,OVC,,0.00,WeatherDisplay:10.37,2013-04-16 15:34:00,
2013-04-16 11:39:00,63.1,52.0,29.97,WSW,248,19.6,19.6,67,0.00,OVC,,0.00,WeatherDisplay:10.37,2013-04-16 15:39:00,
2013-04-16 11:44:00,62.2,51.9,29.97,WSW,253,10.0,17.0,69,0.00,OVC,,0.00,WeatherDisplay:10.37,2013-04-16 15:44:00,
2013-04-16 11:49:00,61.5,52.4,29.97,WSW,243,10.0,16.0,72,0.00,OVC,,0.00,WeatherDisplay:10.37,2013-04-16 15:49:00,
2013-04-16 11:54:00,61.0,53.0,29.97,WSW,247,12.0,18.0,75,0.00,OVC,,0.00,WeatherDisplay:10.37,2013-04-16 15:54:00,
2013-04-16 11:59:00,60.8,53.2,29.97,WSW,241,10.0,15.0,76,0.00,OVC,,0.00,WeatherDisplay:10.37,2013-04-16 15:59:00,
2013-04-16 12:04:00,60.8,53.9,29.97,SW,226,7.0,17.0,78,0.00,-RA,,0.00,WeatherDisplay:10.37,2013-04-16 16:04:00,
2013-04-16 12:09:00,60.6,54.1,29.97,SW,224,9.0,15.0,79,0.00,-RA,,0.00,WeatherDisplay:10.37,2013-04-16 16:09:00,
2013-04-16 12:14:00,60.6,54.1,29.97,SW,221,7.0,15.0,79,0.00,-RA,,0.00,WeatherDisplay:10.37,2013-04-16 16:14:00,
2013-04-16 12:19:00,60.8,54.6,29.97,SW,222,7.0,16.0,80,0.00,-RA,,0.00,WeatherDisplay:10.37,2013-04-16 16:19:00,
2013-04-16 12:24:00,61.0,54.8,29.94,WSW,238,9.0,13.0,80,0.00,-RA,,0.00,WeatherDisplay:10.37,2013-04-16 16:24:00,
2013-04-16 12:29:00,61.2,54.6,29.94,WSW,239,10.0,17.0,79,0.00,-RA,,0.00,WeatherDisplay:10.37,2013-04-16 16:29:00,
2013-04-16 12:34:00,61.3,54.8,29.94,WSW,240,12.0,17.0,79,0.00,-RA,,0.00,WeatherDisplay:10.37,2013-04-16 16:34:00,
2013-04-16 12:39:00,61.3,55.1,29.97,WSW,244,9.0,17.0,80,0.00,-RA,,0.00,WeatherDisplay:10.37,2013-04-16 16:39:00,
2013-04-16 12:44:00,61.7,55.1,29.97,WSW,248,8.0,10.0,79,0.00,-RA,,0.00,WeatherDisplay:10.37,2013-04-16 16:44:00,
2013-04-16 12:49:00,61.7,55.2,29.97,WSW,246,10.0,16.0,79,0.00,-RA,,0.00,WeatherDisplay:10.37,2013-04-16 16:49:00,
2013-04-16 12:54:00,61.9,55.3,29.97,WSW,243,10.0,17.0,79,0.00,-RA,,0.00,WeatherDisplay:10.37,2013-04-16 16:54:00,
2013-04-16 12:59:00,61.9,55.6,29.97,SW,236,9.0,16.0,80,0.00,-RA,,0.00,WeatherDisplay:10.37,2013-04-16 16:59:00,
2013-04-16 13:04:00,62.1,55.5,29.97,WSW,240,8.0,15.0,79,0.00,-RA,,0.00,WeatherDisplay:10.37,2013-04-16 17:04:00,
2013-04-16 13:09:00,62.2,56.0,29.97,WSW,245,9.0,15.0,80,0.00,-RA,,0.00,WeatherDisplay:10.37,2013-04-16 17:09:00,
2013-04-16 13:14:00,62.3,55.7,29.97,WSW,238,7.0,15.0,79,0.00,-RA,,0.04,WeatherDisplay:10.37,2013-04-16 17:14:00,
2013-04-16 13:19:00,62.4,56.2,29.97,WSW,244,9.0,13.0,80,0.00,-RA,,0.04,WeatherDisplay:10.37,2013-04-16 17:19:00,
2013-04-16 13:24:00,62.1,55.9,29.97,WSW,253,9.0,14.0,80,0.00,-RA,,0.04,WeatherDisplay:10.37,2013-04-16 17:24:00,
2013-04-16 13:29:00,62.1,55.8,29.97,WSW,249,7.0,10.0,80,0.00,-RA,,0.04,WeatherDisplay:10.37,2013-04-16 17:29:00,
2013-04-16 13:34:00,62.2,56.3,29.97,WSW,248,8.0,17.0,81,0.00,-RA,,0.04,WeatherDisplay:10.37,2013-04-16 17:34:00,
2013-04-16 13:39:00,62.2,56.3,29.97,WSW,250,7.0,14.0,81,0.00,-RA,,0.04,WeatherDisplay:10.37,2013-04-16 17:39:00,
2013-04-16 13:44:00,62.2,56.3,29.97,WSW,252,6.0,13.0,81,0.00,-RA,,0.04,WeatherDisplay:10.37,2013-04-16 17:44:00,
2013-04-16 13:49:00,62.2,56.3,29.97,WSW,255,5.0,11.0,81,0.00,-RA,,0.04,WeatherDisplay:10.37,2013-04-16 17:49:00,
2013-04-16 13:54:00,62.4,56.2,29.97,WSW,248,3.0,12.0,80,0.00,-RA,,0.04,WeatherDisplay:10.37,2013-04-16 17:54:00,
2013-04-16 13:59:00,62.7,56.4,29.97,WSW,251,9.0,13.0,80,0.00,-RA,,0.04,WeatherDisplay:10.37,2013-04-16 17:59:00,
2013-04-16 14:04:00,63.1,56.5,29.97,WSW,253,6.0,10.0,79,0.00,RA,,0.04,WeatherDisplay:10.37,2013-04-16 18:04:00,
2013-04-16 14:09:00,63.3,56.3,29.94,WSW,250,8.0,13.0,78,0.00,RA,,0.04,WeatherDisplay:10.37,2013-04-16 18:09:00,
2013-04-16 14:14:00,63.5,56.5,29.94,WSW,256,6.0,10.0,78,0.00,RA,,0.04,WeatherDisplay:10.37,2013-04-16 18:14:00,
2013-04-16 14:19:00,63.5,56.2,29.94,WSW,243,5.0,10.0,77,0.00,RA,,0.04,WeatherDisplay:10.37,2013-04-16 18:19:00,
2013-04-16 14:24:00,63.9,56.1,29.94,SW,235,7.0,12.0,76,0.00,RA,,0.04,WeatherDisplay:10.37,2013-04-16 18:24:00,
2013-04-16 14:29:00,63.9,56.1,29.94,WSW,241,3.0,9.0,76,0.00,RA,,0.04,WeatherDisplay:10.37,2013-04-16 18:29:00,
2013-04-16 14:34:00,63.9,56.1,29.94,WSW,249,6.0,9.0,76,0.00,RA,,0.04,WeatherDisplay:10.37,2013-04-16 18:34:00,
2013-04-16 14:39:00,63.9,55.8,29.94,West,270,8.1,8.1,75,0.00,OVC,,0.04,WeatherDisplay:10.37,2013-04-16 18:39:00,
2013-04-16 14:44:00,64.0,55.6,29.94,West,259,6.0,13.0,74,0.00,RA,,0.04,WeatherDisplay:10.37,2013-04-16 18:44:00,
2013-04-16 14:49:00,64.0,55.6,29.94,WSW,253,6.0,9.0,74,0.00,RA,,0.04,WeatherDisplay:10.37,2013-04-16 18:49:00,
2013-04-16 14:54:00,63.9,55.8,29.94,West,259,5.0,9.0,75,0.00,RA,,0.04,WeatherDisplay:10.37,2013-04-16 18:54:00,
2013-04-16 14:59:00,63.7,56.0,29.94,West,267,2.0,6.0,76,0.00,RA,,0.04,WeatherDisplay:10.37,2013-04-16 18:59:00,
2013-04-16 15:04:00,63.7,55.6,29.94,West,270,5.0,7.0,75,0.00,RA,,0.04,WeatherDisplay:10.37,2013-04-16 19:04:00,
2013-04-16 15:09:00,63.9,56.1,29.94,West,266,5.0,9.0,76,0.00,RA,,0.04,WeatherDisplay:10.37,2013-04-16 19:09:00,
2013-04-16 15:14:00,64.4,56.3,29.94,West,266,9.0,13.0,75,0.00,RA,,0.04,WeatherDisplay:10.37,2013-04-16 19:14:00,
2013-04-16 15:19:00,64.6,56.5,29.94,West,265,6.0,10.0,75,0.00,RA,,0.04,WeatherDisplay:10.37,2013-04-16 19:19:00,
2013-04-16 15:24:00,64.8,56.6,29.91,West,271,6.0,9.0,75,0.00,RA,,0.04,WeatherDisplay:10.37,2013-04-16 19:24:00,
2013-04-16 15:29:00,64.8,56.6,29.91,West,270,7.0,13.0,75,0.00,RA,,0.04,WeatherDisplay:10.37,2013-04-16 19:29:00,
2013-04-16 15:34:00,64.8,56.3,29.91,West,260,3.0,8.0,74,0.00,RA,,0.04,WeatherDisplay:10.37,2013-04-16 19:34:00,
2013-04-16 15:39:00,64.8,56.3,29.91,NNW,338,8.1,8.1,74,0.00,OVC,,0.04,WeatherDisplay:10.37,2013-04-16 19:39:00,
2013-04-16 15:44:00,64.8,56.3,29.91,West,272,8.0,10.0,74,0.00,RA,,0.04,WeatherDisplay:10.37,2013-04-16 19:44:00,
2013-04-16 15:49:00,64.8,56.3,29.91,West,270,9.2,9.2,74,0.00,OVC,,0.04,WeatherDisplay:10.37,2013-04-16 19:49:00,
2013-04-16 15:54:00,64.8,55.9,29.91,West,274,2.0,11.0,73,0.00,RA,,0.04,WeatherDisplay:10.37,2013-04-16 19:54:00,
2013-04-16 15:59:00,64.6,55.7,29.91,West,281,2.0,10.0,73,0.00,RA,,0.04,WeatherDisplay:10.37,2013-04-16 19:59:00,
2013-04-16 16:04:00,64.4,56.0,29.91,WNW,298,1.0,14.0,74,0.00,-RA,,0.04,WeatherDisplay:10.37,2013-04-16 20:04:00,
2013-04-16 16:09:00,64.4,56.3,29.94,NW,322,3.0,14.0,75,0.00,-RA,,0.04,WeatherDisplay:10.37,2013-04-16 20:09:00,
2013-04-16 16:14:00,63.6,57.3,29.94,NNW,338,5.0,15.0,80,0.00,-RA,,0.04,WeatherDisplay:10.37,2013-04-16 20:14:00,
2013-04-16 16:19:00,62.5,57.6,29.94,NNW,334,9.0,14.0,84,0.00,-RA,,0.04,WeatherDisplay:10.37,2013-04-16 20:19:00,
2013-04-16 16:24:00,61.1,56.2,29.97,NW,326,8.0,15.0,84,0.00,-RA,,0.04,WeatherDisplay:10.37,2013-04-16 20:24:00,
2013-04-16 16:29:00,59.8,55.7,29.97,NNW,331,8.0,13.0,86,0.00,-RA,,0.04,WeatherDisplay:10.37,2013-04-16 20:29:00,
2013-04-16 16:34:00,59.2,55.6,29.97,NW,320,6.0,12.0,88,0.00,-RA,,0.04,WeatherDisplay:10.37,2013-04-16 20:34:00,
2013-04-16 16:39:00,58.7,55.8,29.97,NW,313,6.0,10.0,90,0.00,-RA,,0.04,WeatherDisplay:10.37,2013-04-16 20:39:00,
2013-04-16 16:44:00,58.5,55.8,29.97,NW,311,6.0,7.0,91,0.00,-RA,,0.04,WeatherDisplay:10.37,2013-04-16 20:44:00,
2013-04-16 16:49:00,58.1,55.8,29.97,NW,313,6.0,10.0,92,0.00,-RA,,0.04,WeatherDisplay:10.37,2013-04-16 20:49:00,
2013-04-16 16:54:00,57.8,56.1,29.97,NW,318,6.0,13.0,94,0.00,-RA,,0.04,WeatherDisplay:10.37,2013-04-16 20:54:00,
2013-04-16 16:59:00,57.6,55.8,29.97,NW,321,6.0,10.0,94,0.00,-RA,,0.04,WeatherDisplay:10.37,2013-04-16 20:59:00,
2013-04-16 17:04:00,56.5,54.2,29.97,NNW,342,10.0,13.0,92,0.00,-RA,,0.04,WeatherDisplay:10.37,2013-04-16 21:04:00,
2013-04-16 17:09:00,54.4,50.9,29.97,North,353,8.0,12.0,88,0.00,-RA,,0.04,WeatherDisplay:10.37,2013-04-16 21:09:00,
2013-04-16 17:14:00,53.2,50.1,29.97,NNW,348,8.0,15.0,89,0.00,-RA,,0.04,WeatherDisplay:10.37,2013-04-16 21:14:00,
2013-04-16 17:19:00,52.7,50.1,29.97,NNW,344,5.0,12.0,91,0.00,-RA,,0.04,WeatherDisplay:10.37,2013-04-16 21:19:00,
2013-04-16 17:24:00,52.5,50.6,30.00,NNW,336,5.0,7.0,93,0.00,-RA,,0.04,WeatherDisplay:10.37,2013-04-16 21:24:00,
2013-04-16 17:29:00,52.1,50.4,30.00,NNW,338,6.0,13.0,94,0.00,-RA,,0.04,WeatherDisplay:10.37,2013-04-16 21:29:00,
2013-04-16 17:35:00,51.8,50.7,30.00,NW,315,5.8,5.8,96,0.00,-RA,,0.04,WeatherDisplay:10.37,2013-04-16 21:35:00,
2013-04-16 17:40:00,51.8,50.7,30.00,NW,315,4.6,4.6,96,0.00,-RA,,0.04,WeatherDisplay:10.37,2013-04-16 21:40:00,
2013-04-16 17:45:00,51.8,51.0,30.00,West,270,6.9,6.9,97,0.00,-RA,,0.04,WeatherDisplay:10.37,2013-04-16 21:45:00,
2013-04-16 17:50:00,51.8,51.3,30.00,NNW,338,8.5,8.5,98,0.00,-RA,,0.04,WeatherDisplay:10.37,2013-04-16 21:50:00,
2013-04-16 17:55:00,51.8,51.3,30.03,NNW,338,5.8,5.8,98,0.04,-RA,,0.08,WeatherDisplay:10.37,2013-04-16 21:55:00,
2013-04-16 18:00:00,52.0,51.4,30.03,NNW,338,6.0,6.0,98,0.04,-RA,,0.08,WeatherDisplay:10.37,2013-04-16 22:00:00,
2013-04-16 18:05:00,52.0,51.4,30.03,WNW,292,5.8,5.8,98,0.04,-RA,,0.08,WeatherDisplay:10.37,2013-04-16 22:05:00,
2013-04-16 18:10:00,52.2,51.6,30.03,NNW,338,5.8,5.8,98,0.04,-RA,,0.08,WeatherDisplay:10.37,2013-04-16 22:10:00,
2013-04-16 18:15:00,52.3,51.8,30.03,NW,315,9.2,9.2,98,0.04,-RA,,0.08,WeatherDisplay:10.37,2013-04-16 22:15:00,
2013-04-16 18:20:00,52.5,52.0,30.03,WNW,292,5.8,5.8,98,0.04,-RA,,0.08,WeatherDisplay:10.37,2013-04-16 22:20:00,
2013-04-16 18:26:00,52.5,52.0,30.03,NW,315,5.8,5.8,98,0.04,-RA,,0.08,WeatherDisplay:10.37,2013-04-16 22:26:00,
2013-04-16 18:31:00,52.7,52.2,30.03,WSW,248,4.6,4.6,98,0.04,-RA,,0.08,WeatherDisplay:10.37,2013-04-16 22:31:00,
2013-04-16 18:36:00,52.7,52.2,30.06,NW,315,4.7,4.7,98,0.04,-RA,,0.08,WeatherDisplay:10.37,2013-04-16 22:36:00,
2013-04-16 18:42:00,52.7,52.2,30.06,WNW,292,5.8,5.8,98,0.04,-RA,,0.08,WeatherDisplay:10.37,2013-04-16 22:42:00,
2013-04-16 18:47:00,52.9,52.3,30.06,WNW,292,8.1,8.1,98,0.04,-RA,,0.08,WeatherDisplay:10.37,2013-04-16 22:47:00,
2013-04-16 18:52:00,52.9,52.3,30.03,WNW,292,3.5,3.5,98,0.04,-RA,,0.08,WeatherDisplay:10.37,2013-04-16 22:52:00,
2013-04-16 18:57:00,52.9,52.3,30.03,NW,315,5.8,5.8,98,0.00,-RA,,0.08,WeatherDisplay:10.37,2013-04-16 22:57:00,
2013-04-16 19:02:00,52.9,52.3,30.03,WNW,292,6.2,6.2,98,0.00,OVC,,0.08,WeatherDisplay:10.37,2013-04-16 23:02:00,
2013-04-16 19:08:00,53.1,52.5,30.06,WNW,292,2.4,2.4,98,0.00,OVC,,0.08,WeatherDisplay:10.37,2013-04-16 23:08:00,
2013-04-16 19:13:00,53.1,52.5,30.06,NNW,338,3.5,3.5,98,0.00,OVC,,0.08,WeatherDisplay:10.37,2013-04-16 23:13:00,
2013-04-16 19:18:00,53.1,52.5,30.06,WNW,292,7.8,7.8,98,0.00,OVC,,0.08,WeatherDisplay:10.37,2013-04-16 23:18:00,
2013-04-16 19:23:00,53.1,52.5,30.09,WNW,292,5.8,5.8,98,0.00,OVC,,0.08,WeatherDisplay:10.37,2013-04-16 23:23:00,
2013-04-16 19:28:00,52.9,52.1,30.09,NW,315,5.8,5.8,97,0.00,OVC,,0.08,WeatherDisplay:10.37,2013-04-16 23:28:00,
2013-04-16 19:33:00,52.9,51.8,30.09,NW,315,8.5,8.5,96,0.00,OVC,,0.08,WeatherDisplay:10.37,2013-04-16 23:33:00,
2013-04-16 19:39:00,52.9,51.8,30.09,NNW,338,6.9,6.9,96,0.00,OVC,,0.08,WeatherDisplay:10.37,2013-04-16 23:39:00,
2013-04-16 19:44:00,52.9,51.5,30.09,NNW,338,3.5,3.5,95,0.00,OVC,,0.08,WeatherDisplay:10.37,2013-04-16 23:44:00,
2013-04-16 19:49:00,52.7,51.3,30.09,NNE,22,5.8,5.8,95,0.00,OVC,,0.08,WeatherDisplay:10.37,2013-04-16 23:49:00,
2013-04-16 19:54:00,52.7,51.0,30.09,NW,326,3.0,7.0,94,0.00,RA,,0.08,WeatherDisplay:10.37,2013-04-16 23:54:00,
2013-04-16 19:59:00,52.5,50.8,30.09,NW,319,5.0,7.0,94,0.00,RA,,0.08,WeatherDisplay:10.37,2013-04-16 23:59:00,
2013-04-16 20:04:00,52.5,50.8,30.09,NW,322,2.0,7.0,94,0.00,RA,,0.08,WeatherDisplay:10.37,2013-04-17 00:04:00,
2013-04-16 20:09:00,52.5,50.8,30.09,NW,311,1.0,5.0,94,0.00,RA,,0.08,WeatherDisplay:10.37,2013-04-17 00:09:00,
2013-04-16 20:14:00,52.3,50.4,30.09,NW,308,5.0,6.0,93,0.00,RA,,0.08,WeatherDisplay:10.37,2013-04-17 00:14:00,
2013-04-16 20:19:00,52.3,50.4,30.09,NW,312,0.0,7.0,93,0.00,RA,,0.08,WeatherDisplay:10.37,2013-04-17 00:19:00,
2013-04-16 20:24:00,52.2,50.2,30.09,NW,307,3.0,10.0,93,0.00,RA,,0.08,WeatherDisplay:10.37,2013-04-17 00:24:00,
2013-04-16 20:29:00,52.2,49.9,30.09,NW,311,1.0,6.0,92,0.00,RA,,0.08,WeatherDisplay:10.37,2013-04-17 00:29:00,
2013-04-16 20:34:00,52.0,49.1,30.09,WNW,293,6.0,10.0,90,0.00,RA,,0.08,WeatherDisplay:10.37,2013-04-17 00:34:00,
2013-04-16 20:39:00,51.8,49.0,30.12,WNW,301,3.0,8.0,90,0.00,RA,,0.08,WeatherDisplay:10.37,2013-04-17 00:39:00,
2013-04-16 20:44:00,51.6,48.5,30.12,NW,319,6.0,9.0,89,0.00,RA,,0.08,WeatherDisplay:10.37,2013-04-17 00:44:00,
2013-04-16 20:49:00,51.5,48.4,30.12,NW,308,2.0,7.0,89,0.00,RA,,0.08,WeatherDisplay:10.37,2013-04-17 00:49:00,
2013-04-16 20:54:00,51.4,48.3,30.12,NW,306,1.0,7.0,89,0.00,RA,,0.08,WeatherDisplay:10.37,2013-04-17 00:54:00,
2013-04-16 20:59:00,51.3,48.4,30.12,NW,320,3.0,6.0,90,0.00,RA,,0.08,WeatherDisplay:10.37,2013-04-17 00:59:00,
2013-04-16 21:04:00,51.3,48.1,30.12,NNW,344,7.0,12.0,89,0.00,RA,,0.08,WeatherDisplay:10.37,2013-04-17 01:04:00,
2013-04-16 21:09:00,50.7,43.4,30.15,North,4,7.0,15.0,76,0.00,RA,,0.08,WeatherDisplay:10.37,2013-04-17 01:09:00,
2013-04-16 21:14:00,50.0,38.3,30.15,North,2,10.0,15.0,64,0.00,RA,,0.08,WeatherDisplay:10.37,2013-04-17 01:14:00,
2013-04-16 21:19:00,49.6,38.3,30.15,North,359,6.0,13.0,65,0.00,RA,,0.08,WeatherDisplay:10.37,2013-04-17 01:19:00,
2013-04-16 21:24:00,49.3,38.0,30.15,North,360,7.0,9.0,65,0.00,RA,,0.08,WeatherDisplay:10.37,2013-04-17 01:24:00,
2013-04-16 21:29:00,48.8,37.9,30.15,North,357,5.0,10.0,66,0.00,RA,,0.08,WeatherDisplay:10.37,2013-04-17 01:29:00,
2013-04-16 21:34:00,48.4,36.8,30.15,North,1,5.0,8.0,64,0.00,RA,,0.08,WeatherDisplay:10.37,2013-04-17 01:34:00,
2013-04-16 21:39:00,48.2,36.6,30.15,North,6,3.0,10.0,64,0.00,RA,,0.08,WeatherDisplay:10.37,2013-04-17 01:39:00,
2013-04-16 21:44:00,47.9,36.3,30.15,North,358,3.0,10.0,64,0.00,RA,,0.08,WeatherDisplay:10.37,2013-04-17 01:44:00,
2013-04-16 21:49:00,47.7,36.1,30.15,North,360,5.0,6.0,64,0.00,RA,,0.08,WeatherDisplay:10.37,2013-04-17 01:49:00,
2013-04-16 21:54:00,47.5,35.9,30.12,North,351,2.0,10.0,64,0.00,RA,,0.08,WeatherDisplay:10.37,2013-04-17 01:54:00,
2013-04-16 21:59:00,47.3,35.3,30.12,NNW,339,3.0,10.0,63,0.00,RA,,0.08,WeatherDisplay:10.37,2013-04-17 01:59:00,
2013-04-16 22:04:00,46.9,34.6,30.12,NNW,334,3.0,9.0,62,0.00,RA,,0.08,WeatherDisplay:10.37,2013-04-17 02:04:00,
2013-04-16 22:09:00,46.9,34.2,30.15,NNW,339,3.0,9.0,61,0.00,RA,,0.08,WeatherDisplay:10.37,2013-04-17 02:09:00,
2013-04-16 22:14:00,46.6,33.4,30.15,NNW,344,5.0,6.0,60,0.00,RA,,0.08,WeatherDisplay:10.37,2013-04-17 02:14:00,
2013-04-16 22:19:00,46.6,33.0,30.15,NNW,347,3.0,6.0,59,0.00,RA,,0.08,WeatherDisplay:10.37,2013-04-17 02:19:00,
2013-04-16 22:24:00,46.6,33.0,30.18,North,353,3.0,7.0,59,0.00,RA,,0.08,WeatherDisplay:10.37,2013-04-17 02:24:00,
2013-04-16 22:29:00,46.4,33.3,30.18,North,351,2.0,7.0,60,0.00,RA,,0.08,WeatherDisplay:10.37,2013-04-17 02:29:00,
2013-04-16 22:34:00,46.4,33.7,30.18,North,0,2.3,2.3,61,0.00,BKN,,0.08,WeatherDisplay:10.37,2013-04-17 02:34:00,
2013-04-16 22:39:00,46.4,33.3,30.18,NNW,343,1.0,5.0,60,0.00,RA,,0.08,WeatherDisplay:10.37,2013-04-17 02:39:00,
2013-04-16 22:44:00,46.4,33.7,30.18,NNW,338,1.0,4.0,61,0.00,RA,,0.08,WeatherDisplay:10.37,2013-04-17 02:44:00,
2013-04-16 22:49:00,46.4,33.3,30.18,NW,325,1.0,5.0,60,0.00,RA,,0.08,WeatherDisplay:10.37,2013-04-17 02:49:00,
2013-04-16 22:54:00,46.4,32.8,30.21,NNW,334,3.0,6.0,59,0.00,RA,,0.08,WeatherDisplay:10.37,2013-04-17 02:54:00,
2013-04-16 22:59:00,46.4,33.3,30.21,NNW,345,3.0,7.0,60,0.00,RA,,0.08,WeatherDisplay:10.37,2013-04-17 02:59:00,
2013-04-16 23:04:00,46.4,32.8,30.21,North,350,3.0,7.0,59,0.00,RA,,0.08,WeatherDisplay:10.37,2013-04-17 03:04:00,
2013-04-16 23:09:00,46.2,32.2,30.21,North,355,3.0,5.0,58,0.00,RA,,0.08,WeatherDisplay:10.37,2013-04-17 03:09:00,
2013-04-16 23:14:00,46.2,32.2,30.21,North,356,2.0,5.0,58,0.00,RA,,0.08,WeatherDisplay:10.37,2013-04-17 03:14:00,
2013-04-16 23:19:00,46.2,32.2,30.21,North,356,2.0,7.0,58,0.00,RA,,0.08,WeatherDisplay:10.37,2013-04-17 03:19:00,
2013-04-16 23:24:00,46.0,31.2,30.21,NNW,348,3.0,7.0,56,0.00,RA,,0.08,WeatherDisplay:10.37,2013-04-17 03:24:00,
2013-04-16 23:29:00,45.9,29.2,30.21,NNW,348,7.0,12.0,52,0.00,RA,,0.08,WeatherDisplay:10.37,2013-04-17 03:29:00,
2013-04-16 23:34:00,45.7,29.5,30.21,North,353,5.0,9.0,53,0.00,RA,,0.08,WeatherDisplay:10.37,2013-04-17 03:34:00,
2013-04-16 23:39:00,45.7,30.0,30.21,North,0,3.0,7.0,54,0.00,RA,,0.08,WeatherDisplay:10.37,2013-04-17 03:39:00,
2013-04-16 23:45:00,45.5,30.3,30.21,North,0,4.9,4.9,55,0.00,BKN,,0.08,WeatherDisplay:10.37,2013-04-17 03:45:00,
2013-04-16 23:50:00,45.3,30.1,30.21,NNW,338,3.5,3.5,55,0.00,BKN,,0.08,WeatherDisplay:10.37,2013-04-17 03:50:00,
2013-04-16 23:55:00,45.3,30.1,30.21,NNW,338,5.8,5.8,55,0.00,BKN,,0.08,WeatherDisplay:10.37,2013-04-17 03:55:00,